Regional Weather Roundup
Issued by NWS Wakefield, VA

Home | Current Version | Previous Version | Graphics & Text | Print | Product List | Glossary On
Versions: 1 2 3 4 5 6 7 8 9 10 11 12 13 14 15 16 17 18 19 20 21 22 23 24 25 26 27 28
000
ASUS41 KAKQ 040415
RWRAKQ

REGIONAL WEATHER ROUNDUP
NATIONAL WEATHER SERVICE WAKEFIELD VA
1100 PM EST SAT DEC 03 2016

Note: "fair" indicates few or no clouds below 12,000 feet with no
significant weather and/or obstructions to visibility. * = Denotes
station may not report precipitation (e.g., rain,snow,etc.),
thunder or fog.

VAZ042-051-052>054-056-040500-
NORTHERN VIRGINIA

CITY           SKY/WX    TMP DP  RH WIND       PRES   REMARKS
WASH NATIONAL  MOCLDY    42  29  59 VRB7G17   30.29R
DULLES         CLOUDY    40  27  59 W12       30.29R
FORT BELVOIR   MOCLDY    40  28  61 SW5       30.30R
QUANTICO       PTCLDY    36  27  69 N7        30.32R
FREDERICKSBRG* PTCLDY    40  30  69 NW3       30.30R
STAFFORD*      PTCLDY    37  28  69 NW6       30.35R
WARRENTON      PTCLDY    33  24  70 W3        30.30R
CULPEPER*      CLOUDY    37  28  72 CALM      30.31R
MANASSAS*      CLEAR     37  28  70 NW9       30.31
LEESBURG*      CLOUDY    41  32  70 W13G18    30.30R
WINCHESTER     CLOUDY    36  27  69 W6        30.30R
FRONT ROYAL*   FAIR      36  27  69 CALM      30.29R
LURAY*         FAIR      32  30  93 CALM      30.29R
$$

VAZ048-049-060>072-079>083-040500-
CENTRAL AND SOUTH CENTRAL VIRGINIA

CITY           SKY/WX    TMP DP  RH WIND       PRES   REMARKS
RICHMOND       CLOUDY    39  28  64 N6        30.30R
CHESTERFIELD*  FAIR      41  18  38 N8        30.31R
PETERSBURG*    CLOUDY    40  31  70 N5        30.31R
HANOVER        PTCLDY    39  26  59 N3        30.32R
TAPPAHANNOCK*  PTCLDY    40  25  53 N3        30.29S
QUINTON*       FAIR      40  30  68 CALM      30.29S
CHARLOTTSVILLE PTCLDY    39  27  62 CALM      30.28R
GORDONSVILLE*  FAIR      34  29  83 CALM      30.29R
ORANGE*          N/A     36  30  80 CALM      30.31R
LOUISA*        CLOUDY    37  32  81 CALM      30.28R
BUMPASS*       FAIR      38  28  67 N3        30.29R
FARMVILLE*     CLOUDY    38  33  81 N5        30.28R
CREWE*         FAIR      38  32  78 CALM      30.28R
FORT PICKETT*  FAIR      39  26  59 N5        30.29R
CHASE CITY*    FAIR      37  34  88 CALM      30.28S
CLARKSVILLE*   FAIR      41  32  70 CALM      30.28S
SOUTH HILL*    PTCLDY    37  32  82 CALM      30.34R
LAWRENCEVILLE* FAIR      38  32  79 CALM      30.28R
EMPORIA*       CLOUDY    36  32  87 N7        30.31R
$$

VAZ088>098-040500-
SOUTHEAST VIRGINIA

CITY           SKY/WX    TMP DP  RH WIND       PRES   REMARKS
NORFOLK        CLOUDY    47  32  56 N8        30.26R
VIRGINIA BEACH CLOUDY    45  32  60 N9        30.25S
NORFOLK NAVAL  CLOUDY    46  32  58 N9        30.28S
WEST POINT*    CLOUDY    38  31  77 CALM      30.31R
SALUDA*        FAIR      42  32  67 NW6       30.28R
NEWPORT NEWS   CLOUDY    42  31  64 N5        30.28R
LANGLEY AFB    CLOUDY    44  31  60 N10       30.27R
FORT EUSTIS    CLOUDY    42  30  62 VRB3      30.26R
WILLIAMSBURG*  CLOUDY    43  34  70 CALM      30.30R
HR EXEC AP*    FAIR      43  30  61 N3        30.27R
FRANKLIN*      CLOUDY    38  33  81 CALM      30.29S
US460-WAKEFLD  CLOUDY    39  33  79 CALM      30.30R
$$

VAZ020-022-025-037-045-040500-
WEST CENTRAL AND SOUTHWEST VIRGINIA

CITY           SKY/WX    TMP DP  RH WIND       PRES   REMARKS
STAUNTON*      PTCLDY    32  27  79 N3        30.30R
WAYNESBORO*    FAIR      33  27  77 N3        30.27R
HOT SPRINGS VA CLOUDY    27  27 100 NW5       30.16R
LYNCHBURG      PTCLDY    36  28  73 CALM      30.28R
DANVILLE       CLOUDY    40  30  67 NW5       30.29R
SOUTH BOSTON*  FAIR      38  32  80 CALM      30.29R
MARTINSVILLE   CLOUDY    33  28  82 CALM      30.30S
ROANOKE        CLOUDY    38  26  62 CALM      30.29S
BLACKSBURG     CLOUDY    34  27  77 NW5       30.28S
DUBLIN*        CLOUDY    35  28  76 CALM      30.27S
MARION*        PTCLDY    34  29  84 CALM      30.27R
HILLSVILLE*    CLOUDY    32  28  83 CALM      30.22S
RICHLANDS*     FAIR      32  27  81 E3        30.24S
WISE*          CLOUDY    34  28  80 CALM      30.24S
ABINGDON*      CLOUDY    38  30  71 NE3       30.24S
$$

MDZ021>025-VAZ099-100-040500-
SOUTHERN MARYLAND AND THE DELMARVA PENINSULA

CITY           SKY/WX    TMP DP  RH WIND       PRES   REMARKS
PATUXENT RIVER CLOUDY    40  28  62 W12       30.28R
BAY BRIDGE APT CLOUDY    43  32  65 W12G18    30.26R
LEONARDTOWN    CLOUDY    37  28  70 W5        30.30R
DOVER          CLOUDY    44  33  67 W9        30.21R
GEORGETOWN     CLOUDY    43  31  62 W8        30.24R
EASTON         CLOUDY    43  31  63 NW8       30.29R
CAMBRIDGE      MOCLDY    39  32  75 NW5       30.26R
SALISBURY      PTCLDY    39  31  72 W6        30.25R
OCEAN CITY     PTCLDY    40  30  67 NW6       30.24R
WALLOPS ISLAND CLOUDY    40  32  73 W7        30.26R
ACCOMACK*      PTCLDY    44  33  65 NW7       30.27R
$$

NCZ012>017-030>032-040500-
NORTH CENTRAL AND EASTERN NORTH CAROLINA

CITY           SKY/WX    TMP DP  RH WIND       PRES   REMARKS
ROANOKE RAPIDS FAIR      37  36  93 CALM      30.28R
RALEIGH        CLOUDY    45  31  58 CALM      30.29S
ELIZABETH CITY CLOUDY    41  33  73 W6        30.27S
AHOSKIE*       CLOUDY    38  36  90 CALM      30.29R
EDENTON*       CLOUDY    44  36  71 CALM      30.29R
CURRITUCK*     CLOUDY    43  32  65 CALM      30.27S
KILL DEVIL HLS CLOUDY    46  38  72 NW5       30.24S
MANTEO         CLOUDY    47  34  60 N6        30.26S
CAPE HATTERAS  PTCLDY    49  33  54 CALM      30.26R
TARBORO*       NOT AVBL
GOLDSBORO      CLOUDY    44  40  85 CALM      30.27S
WASHINGTON     MOCLDY    40  35  81 CALM      30.29R
GREENVILLE     MOCLDY    41  39  93 CALM      30.29S
NEW BERN       CLOUDY    43  38  82 CALM      30.30R
WILMINGTON     CLOUDY    46  38  73 NW5       30.29R
$$

VAZ048-040500-
ELSEWHERE

CITY           SKY/WX    TMP DP  RH WIND       PRES   REMARKS
HARRISBURG PA  CLOUDY    44  32  62 NW14      30.21S
BALTIMORE      CLOUDY    41  30  65 W10       30.26R
ANNAPOLIS      CLOUDY    45  31  58 W6        30.27R
ANDREWS AFB    PTCLDY    40  28  61 W13       30.27R
PHILADELPHIA   CLOUDY    47  29  49 NW12G21   30.20R
HENDERSON NC   CLOUDY    37  30  73 CALM      30.29R
GREENSBORO     CLOUDY    43  29  57 NE3       30.27R
ROCKY MOUNT    CLOUDY    42  38  85 CALM      30.30R
$$

VAZ100-040500-
MARINE

STATION/POSITION TIME  TEMP    WIND        PRES    WAVE   SWELL
                       AIR SEA DIR/SP/G            HT/PER HT/PER
                 (UTC) (F)     (DEG/KT/KT) (MB)    (FT/S) (FT/S)
BRANDYWINE LGT   0348   45     300/ 21/ 24   N/A
CAPE MAY NJ      0348   46 47  300/ 11/ 17 1022.4R
LEWES DE         0348   43 48  280/ 14/ 19 1023.2R
OCEAN-CITY-INLET 0348   42 51  310/ 10/ 15 1024.0R
WACHAPREAGUE VA  0342   43 49  290/  2/  4 1024.6R
THOMAS POINT MD  0400   43 48  280/ 15/ 16   N/A
GOOSES REEF MD   0400   43 50  300/ 16/ 19 1025.6    2/ 3
COVE POINT MD    0348   42     320/ 15/ 18 1025.6R
SOLOMONS ISLAND  0348          290/  8/ 11   N/A
BISHOPS HEAD MD  0348   43 45  300/ 13/ 17 1025.1R
PINEY POINT MD   0348          350/ 18/ 20   N/A
POTOMAC MD       0400   44 51  330/ 14/ 17 1024.7    2/ 3
CAMBRIDGE MD     0348   44 48  290/ 12/ 18 1023.9R
LEWISETTA VA     0342   44 49  330/  9/ 12 1025.1R
RAPPAHANNOCK LGT 0348          340/ 19/ 21 1025.2R
STINGRAY PT      0350   44     350/ 14/ 17 1025.5R
YORK RVR RNG VA  0342   45     360/ 14/ 17 1024.4R
YORKTOWN VA      0342   44 52  320/  9/ 11 1024.9R
JAMESTOWN VA     0400   43 52  320/  4/  8   N/A     0
DOMINION TERM VA 0342   46      40/  2/  4 1025.0R
KIPTOPEKE VA     0348      51   10/  6/ 10   N/A
CHES BAY BRIDGE  0342   47 53  350/ 16/ 18 1024.5R
CAPE HENRY VA    0342   47     340/ 17/ 20   N/A
WILLOUBY STN VA  0342   46     360/ 10/ 11 1025.6S
S CRANEY ISL VA  0342   47      10/ 12/ 14 1024.5R
CAPE HENRY BUOY  0342      56                N/A     3/ 5
1ST LANDING BUOY 0400   47 52              1024.8    2/ 3
CAPE CHARLES BUO 0356      56                N/A     3/ 4
OFFSHORE WE BUOY 0351      56                N/A     4/ 5
64NM E OF VA BCH 0350   51 60  340/ 19/ 23 1022.9R   7/ 7
DUCK PIER NC     0342   47 56  310/ 10/ 12 1023.9R
44100 DUCK FRF   0335      57                N/A     4/ 5
OREGON INLET NC  0348          320/  7/ 10   N/A
HATTERAS NC      0342   50 58  340/ 13/ 15 1024.3R
DIAMOND SHLS NC  0350   53 75  360/ 14/ 17 1024.3R   6/ 9   5/ 9
CAPE LOOKOUT NC  0300   50     340/  9/ 10 1024.5R
$$




USA.gov is the U.S. government's official web portal to all federal, state and local government web resources and services.